STARLINK-3748, 52267

Orbit data source: Space-Track

STARLINK-3748, 52267 is a payload satellite owned by SpaceX/Seattle (US) in LEO that was launched on Thu, 21 Apr 2022 UTC via an FALCON 9 launch vehicle from the Air Force Eastern Test Range (AFETR). Payload-class satellites include a variety of spacecraft equipped with specific instruments for various scientific and technological missions. These include communications satellites like Starlink; space stations such as the ISS; scientific satellites like the Hubble; Earth observation satellites from companies like Planet Labs, Umbra, and HawkEye 360; GPS; miniature CubeSats for education and research; and military/defense satellites.

Loading next visibility...
Identifier
52267, 2022-041G
Orbit
LEO
Country
Flag of USUS
Related business
Manufacturer
SpaceX/Seattle
Mission
Operational Commercial Communications
Bus & Motor
STARLINK, Unknown motor
Mass
297 kg wet, ~275 kg dry
Launch date (UTC)
2022-04-21 (4 years ago)
Launch vehicle
FALCON 9
Launch site
Air Force Eastern Test Range (AFETR)
Object type
Payload
Rocket body
Debris
Shape & HBR
Box + 1 Pan, 10.1 m
Radar Cross Section
11.087 m², Large (>1 m²)

Expand to show TLE details & history
Last TLE update: 1 day ago

TLE from 1 day ago
0 STARLINK-3748
1 52267U 22041G   26235.91948824  .00000804  00000-0  33952-4 0  9992
2 52267  53.1605  69.1331 0001164  89.5773 270.5363 15.35394550239738
Epoch: 2026-08-23T22:04Z
TLE epoch observation values (Epoch: 2026-08-23T22:04:03.783Z)
Latitude
-0.00008°
Longitude
125.90865°
Altitude
460.643 km
Speed
7.638 km/s
True Right ascension
04h 36m 31s
True Declination
0° 00' 00"
Sunlit
Object was in daylight at epoch
Visualization orbit readout
Latitude
Unknown
Longitude
Unknown
Altitude
Unknown
Speed
Unknown
Apparent Right ascension
Unknown
Apparent Declination
Unknown
Sunlit
N/A
Visualization observer readout
Local Sidereal Time
19:32:30
Azimuth
Unknown
Elevation
Unknown
Doppler factor
Unknown
Orbital elements
Apogee altitude
460.802 km
Perigee altitude
459.21 km
Semi-major axis
6,838.143 km
Eccentricity
0.00012
Inclination
53.1605°
RAAN
69.1331°
Arg. of periapsis
89.5773°
True anomaly
270.52296°
Mean anomaly
270.5363°
Eccentric anomaly
270.52963°
Mean motion
3.83827 °/min
Orbital period
93.79 mins
BSTAR
0.000033952
Loading maneuver chart data...
Computing Atmospheric mass density...
Loading historical data...
Loading historical data...
Loading historical data...
Loading historical data...
Loading historical data...
Loading historical data...
Loading historical data...

Documentation

Showing up to 5 results
|